Time,TemperatureF,DewpointF,PressureIn,WindDirection,WindDirectionDegrees,WindSpeedMPH,WindSpeedGustMPH,Humidity,HourlyPrecipIn,Conditions,Clouds,dailyrainin,SoftwareType,DateUTC
2013-04-21 00:02:00,54.0,37.0,28.49,South,190,3.0,3.0,52,0.00,,,0.00,,2013-04-21 05:02:00,
2013-04-21 00:12:00,54.0,37.0,28.49,South,190,3.0,3.0,52,0.00,,,0.00,,2013-04-21 05:12:00,
2013-04-21 00:22:00,54.0,36.0,28.49,ESE,108,3.0,3.0,50,0.00,,,0.00,,2013-04-21 05:22:00,
2013-04-21 00:32:00,54.0,36.0,28.52,ESE,115,3.0,3.0,50,0.00,,,0.00,,2013-04-21 05:32:00,
2013-04-21 00:43:00,54.0,36.0,28.52,ESE,115,3.0,3.0,50,0.00,,,0.00,,2013-04-21 05:43:00,
2013-04-21 00:52:00,54.0,35.0,28.52,East,91,3.0,3.0,49,0.00,,,0.00,,2013-04-21 05:52:00,
2013-04-21 01:01:00,54.0,35.0,28.52,SE,128,3.0,4.0,49,0.00,,,0.00,,2013-04-21 06:01:00,
2013-04-21 01:12:00,53.0,35.0,28.52,ESE,116,2.0,3.0,50,0.00,,,0.00,,2013-04-21 06:12:00,
2013-04-21 01:21:00,53.0,35.0,28.52,ESE,116,2.0,3.0,50,0.00,,,0.00,,2013-04-21 06:21:00,
2013-04-21 01:32:00,53.0,35.0,28.52,SSE,162,3.0,3.0,50,0.00,,,0.00,,2013-04-21 06:32:00,
2013-04-21 01:42:00,53.0,35.0,28.52,SSE,162,3.0,3.0,50,0.00,,,0.00,,2013-04-21 06:42:00,
2013-04-21 01:52:00,53.0,35.0,28.52,SSE,148,3.0,3.0,51,0.00,,,0.00,,2013-04-21 06:52:00,
2013-04-21 02:01:00,52.0,35.0,28.52,ESE,106,0.0,0.0,52,0.00,,,0.00,,2013-04-21 07:01:00,
2013-04-21 02:11:00,51.0,34.0,28.52,SE,138,0.0,2.0,53,0.00,,,0.00,,2013-04-21 07:11:00,
2013-04-21 02:21:00,51.0,34.0,28.52,SE,138,0.0,2.0,53,0.00,,,0.00,,2013-04-21 07:21:00,
2013-04-21 02:31:00,51.0,34.0,28.52,SE,138,0.0,2.0,53,0.00,,,0.00,,2013-04-21 07:31:00,
2013-04-21 02:41:00,51.0,34.0,28.52,SE,138,0.0,2.0,53,0.00,,,0.00,,2013-04-21 07:41:00,
2013-04-21 02:52:00,50.0,35.0,28.52,SE,131,0.0,0.0,56,0.00,,,0.00,,2013-04-21 07:52:00,
2013-04-21 03:01:00,50.0,35.0,28.52,SE,131,0.0,0.0,56,0.00,,,0.00,,2013-04-21 08:01:00,
2013-04-21 03:12:00,50.0,35.0,28.49,SE,128,4.0,4.0,57,0.00,,,0.00,,2013-04-21 08:12:00,
2013-04-21 03:21:00,50.0,35.0,28.49,SE,128,4.0,4.0,57,0.00,,,0.00,,2013-04-21 08:21:00,
2013-04-21 03:32:00,50.0,35.0,28.49,South,185,3.0,5.0,56,0.00,,,0.00,,2013-04-21 08:32:00,
2013-04-21 03:41:00,50.0,35.0,28.49,South,185,3.0,5.0,56,0.00,,,0.00,,2013-04-21 08:41:00,
2013-04-21 03:52:00,50.0,35.0,28.49,South,185,3.0,5.0,56,0.00,,,0.00,,2013-04-21 08:52:00,
2013-04-21 04:01:00,50.0,35.0,28.49,South,185,3.0,5.0,56,0.00,,,0.00,,2013-04-21 09:01:00,
2013-04-21 04:12:00,48.0,34.0,28.49,SE,144,3.0,5.0,58,0.00,,,0.00,,2013-04-21 09:12:00,
2013-04-21 04:21:00,48.0,34.0,28.49,SE,144,3.0,5.0,58,0.00,,,0.00,,2013-04-21 09:21:00,
2013-04-21 04:32:00,48.0,34.0,28.49,SE,142,5.0,5.0,59,0.00,,,0.00,,2013-04-21 09:32:00,
2013-04-21 04:43:00,48.0,34.0,28.49,SE,142,5.0,5.0,59,0.00,,,0.00,,2013-04-21 09:43:00,
2013-04-21 04:52:00,49.0,35.0,28.49,SSE,155,3.0,5.0,59,0.00,,,0.00,,2013-04-21 09:52:00,
2013-04-21 05:02:00,49.0,35.0,28.49,SSE,158,5.0,5.0,59,0.00,,,0.00,,2013-04-21 10:02:00,
2013-04-21 05:12:00,49.0,35.0,28.49,SE,146,5.0,5.0,59,0.00,,,0.00,,2013-04-21 10:12:00,
2013-04-21 05:22:00,49.0,35.0,28.49,SE,146,5.0,5.0,59,0.00,,,0.00,,2013-04-21 10:22:00,
2013-04-21 05:32:00,51.0,35.0,28.49,SSE,154,5.0,5.0,55,0.00,,,0.00,,2013-04-21 10:32:00,
2013-04-21 05:42:00,51.0,35.0,28.49,SSE,154,5.0,5.0,55,0.00,,,0.00,,2013-04-21 10:42:00,
2013-04-21 05:52:00,52.0,34.0,28.49,SE,145,5.0,7.0,51,0.00,,,0.00,,2013-04-21 10:52:00,
2013-04-21 06:02:00,52.0,34.0,28.49,SE,145,5.0,7.0,51,0.00,,,0.00,,2013-04-21 11:02:00,
2013-04-21 06:12:00,52.0,34.0,28.49,SE,145,5.0,7.0,51,0.00,,,0.00,,2013-04-21 11:12:00,
2013-04-21 06:22:00,53.0,34.0,28.49,SSE,147,5.0,5.0,49,0.00,,,0.00,,2013-04-21 11:22:00,
2013-04-21 06:33:00,53.0,34.0,28.49,SE,144,4.0,5.0,48,0.00,,,0.00,,2013-04-21 11:33:00,
2013-04-21 06:42:00,53.0,34.0,28.49,SE,144,4.0,5.0,48,0.00,,,0.00,,2013-04-21 11:42:00,
2013-04-21 06:52:00,53.0,34.0,28.49,SE,144,4.0,5.0,48,0.00,,,0.00,,2013-04-21 11:52:00,
2013-04-21 07:02:00,53.0,34.0,28.52,SSE,165,3.0,5.0,48,0.00,,,0.00,,2013-04-21 12:02:00,
2013-04-21 07:12:00,52.0,33.0,28.52,SSE,147,7.0,7.0,49,0.00,,,0.00,,2013-04-21 12:12:00,
2013-04-21 07:22:00,52.0,33.0,28.52,SSE,147,7.0,7.0,49,0.00,,,0.00,,2013-04-21 12:22:00,
2013-04-21 07:32:00,52.0,33.0,28.52,SSE,147,7.0,7.0,49,0.00,,,0.00,,2013-04-21 12:32:00,
2013-04-21 07:42:00,52.0,33.0,28.52,SSE,147,7.0,7.0,49,0.00,,,0.00,,2013-04-21 12:42:00,
2013-04-21 07:52:00,53.0,34.0,28.52,SE,141,8.0,8.0,48,0.00,,,0.00,,2013-04-21 12:52:00,
2013-04-21 08:01:00,53.0,34.0,28.52,SE,141,8.0,8.0,48,0.00,,,0.00,,2013-04-21 13:01:00,
2013-04-21 08:12:00,54.0,33.0,28.55,SSE,154,5.0,7.0,45,0.00,,,0.00,,2013-04-21 13:12:00,
2013-04-21 08:21:00,54.0,33.0,28.55,SSE,154,5.0,7.0,45,0.00,,,0.00,,2013-04-21 13:21:00,
2013-04-21 08:32:00,54.0,33.0,28.55,SSE,149,3.0,5.0,45,0.00,,,0.00,,2013-04-21 13:32:00,
2013-04-21 08:42:00,54.0,33.0,28.55,SSE,149,3.0,5.0,45,0.00,,,0.00,,2013-04-21 13:42:00,
2013-04-21 08:52:00,54.0,34.0,28.55,SSE,153,10.0,10.0,46,0.00,,,0.00,,2013-04-21 13:52:00,
2013-04-21 09:01:00,57.0,36.0,28.55,SSE,159,9.0,9.0,45,0.00,,,0.00,,2013-04-21 14:01:00,
2013-04-21 09:11:00,57.0,36.0,28.55,SSE,159,9.0,9.0,45,0.00,,,0.00,,2013-04-21 14:11:00,
2013-04-21 09:21:00,59.0,35.0,28.55,ESE,116,7.0,8.0,41,0.00,,,0.00,,2013-04-21 14:21:00,
2013-04-21 09:32:00,60.0,36.0,28.55,SE,144,11.0,11.0,40,0.00,,,0.00,,2013-04-21 14:32:00,
2013-04-21 09:42:00,60.0,36.0,28.55,SE,144,11.0,11.0,40,0.00,,,0.00,,2013-04-21 14:42:00,
2013-04-21 09:52:00,62.0,35.0,28.55,SE,146,8.0,8.0,37,0.00,,,0.00,,2013-04-21 14:52:00,
2013-04-21 10:02:00,62.0,35.0,28.55,SSE,161,11.0,11.0,37,0.00,,,0.00,,2013-04-21 15:02:00,
2013-04-21 10:11:00,62.0,35.0,28.55,SSE,161,11.0,11.0,37,0.00,,,0.00,,2013-04-21 15:11:00,
2013-04-21 10:22:00,63.0,36.0,28.55,SSE,161,13.0,13.0,36,0.00,,,0.00,,2013-04-21 15:22:00,
2013-04-21 10:33:00,64.0,36.0,28.55,SSE,153,5.0,8.0,35,0.00,,,0.00,,2013-04-21 15:33:00,
2013-04-21 10:42:00,64.0,36.0,28.55,SSE,153,5.0,8.0,35,0.00,,,0.00,,2013-04-21 15:42:00,
2013-04-21 10:53:00,65.0,36.0,28.55,SSE,162,5.0,7.0,34,0.00,,,0.00,,2013-04-21 15:53:00,
2013-04-21 11:03:00,65.0,36.0,28.55,SE,140,5.0,9.0,34,0.00,,,0.00,,2013-04-21 16:03:00,
2013-04-21 11:12:00,65.0,36.0,28.55,SE,140,5.0,9.0,34,0.00,,,0.00,,2013-04-21 16:12:00,
2013-04-21 11:22:00,65.0,36.0,28.55,SE,140,5.0,9.0,34,0.00,,,0.00,,2013-04-21 16:22:00,
2013-04-21 11:32:00,65.0,36.0,28.55,SE,140,5.0,9.0,34,0.00,,,0.00,,2013-04-21 16:32:00,
2013-04-21 11:42:00,65.0,36.0,28.55,SE,140,5.0,9.0,34,0.00,,,0.00,,2013-04-21 16:42:00,
2013-04-21 12:02:00,67.0,37.0,28.55,SE,129,11.0,11.0,33,0.00,,,0.00,,2013-04-21 17:02:00,
2013-04-21 12:12:00,67.0,37.0,28.55,SSE,156,7.0,9.0,33,0.00,,,0.00,,2013-04-21 17:12:00,
2013-04-21 12:23:00,67.0,37.0,28.55,SSE,156,7.0,9.0,33,0.00,,,0.00,,2013-04-21 17:23:00,
2013-04-21 12:32:00,68.0,38.0,28.55,SSE,164,7.0,9.0,33,0.00,,,0.00,,2013-04-21 17:32:00,
2013-04-21 12:42:00,68.0,38.0,28.55,SSE,164,7.0,9.0,33,0.00,,,0.00,,2013-04-21 17:42:00,
2013-04-21 12:52:00,68.0,38.0,28.55,SSE,164,7.0,9.0,33,0.00,,,0.00,,2013-04-21 17:52:00,
2013-04-21 13:02:00,69.0,38.0,28.52,SSE,168,9.0,9.0,32,0.00,,,0.00,,2013-04-21 18:02:00,
2013-04-21 13:11:00,69.0,38.0,28.52,SSE,168,9.0,9.0,32,0.00,,,0.00,,2013-04-21 18:11:00,
2013-04-21 13:22:00,70.0,39.0,28.52,SSE,166,8.0,8.0,32,0.00,,,0.00,,2013-04-21 18:22:00,
2013-04-21 13:32:00,70.0,39.0,28.52,SSE,166,8.0,8.0,32,0.00,,,0.00,,2013-04-21 18:32:00,
2013-04-21 13:42:00,70.0,39.0,28.52,SSE,166,8.0,8.0,32,0.00,,,0.00,,2013-04-21 18:42:00,
2013-04-21 13:52:00,70.0,39.0,28.52,SSE,166,8.0,8.0,32,0.00,,,0.00,,2013-04-21 18:52:00,
2013-04-21 14:02:00,70.0,39.0,28.52,SSE,152,7.0,11.0,32,0.00,,,0.00,,2013-04-21 19:02:00,
2013-04-21 14:12:00,70.0,39.0,28.52,SSE,152,7.0,11.0,32,0.00,,,0.00,,2013-04-21 19:12:00,
2013-04-21 14:21:00,70.0,39.0,28.52,East,90,7.0,7.0,32,0.00,,,0.00,,2013-04-21 19:21:00,
2013-04-21 14:32:00,70.0,39.0,28.52,East,90,7.0,7.0,32,0.00,,,0.00,,2013-04-21 19:32:00,
2013-04-21 14:42:00,70.0,39.0,28.52,East,90,7.0,7.0,32,0.00,,,0.00,,2013-04-21 19:42:00,
2013-04-21 14:52:00,71.0,39.0,28.49,SE,141,7.0,9.0,31,0.00,,,0.00,,2013-04-21 19:52:00,
2013-04-21 15:01:00,71.0,39.0,28.49,SE,142,5.0,7.0,31,0.00,,,0.00,,2013-04-21 20:01:00,
2013-04-21 15:11:00,71.0,39.0,28.49,SE,142,5.0,7.0,31,0.00,,,0.00,,2013-04-21 20:11:00,
2013-04-21 15:22:00,71.0,40.0,28.49,SE,144,13.0,13.0,32,0.00,,,0.00,,2013-04-21 20:22:00,
2013-04-21 15:32:00,72.0,40.0,28.49,SSE,150,4.0,11.0,31,0.00,,,0.00,,2013-04-21 20:32:00,
2013-04-21 15:42:00,72.0,40.0,28.49,SSE,150,4.0,11.0,31,0.00,,,0.00,,2013-04-21 20:42:00,
2013-04-21 15:52:00,72.0,40.0,28.49,SSE,154,5.0,9.0,31,0.00,,,0.00,,2013-04-21 20:52:00,
2013-04-21 16:02:00,72.0,40.0,28.49,SSE,155,5.0,7.0,31,0.00,,,0.00,,2013-04-21 21:02:00,
2013-04-21 16:12:00,71.0,40.0,28.46,SSE,160,7.0,10.0,32,0.00,,,0.00,,2013-04-21 21:12:00,
2013-04-21 16:21:00,71.0,40.0,28.46,SSE,160,7.0,10.0,32,0.00,,,0.00,,2013-04-21 21:21:00,
2013-04-21 16:33:00,71.0,40.0,28.46,SSE,160,7.0,10.0,32,0.00,,,0.00,,2013-04-21 21:33:00,
2013-04-21 16:43:00,71.0,40.0,28.46,SSE,160,7.0,10.0,32,0.00,,,0.00,,2013-04-21 21:43:00,
2013-04-21 16:53:00,71.0,40.0,28.46,ESE,112,5.0,8.0,32,0.00,,,0.00,,2013-04-21 21:53:00,
2013-04-21 17:02:00,71.0,40.0,28.46,ESE,112,5.0,8.0,32,0.00,,,0.00,,2013-04-21 22:02:00,
2013-04-21 17:12:00,70.0,39.0,28.46,SSE,160,5.0,5.0,32,0.00,,,0.00,,2013-04-21 22:12:00,
2013-04-21 17:22:00,70.0,39.0,28.46,SSE,160,5.0,5.0,32,0.00,,,0.00,,2013-04-21 22:22:00,
2013-04-21 17:33:00,70.0,39.0,28.46,SSE,160,5.0,5.0,32,0.00,,,0.00,,2013-04-21 22:33:00,
2013-04-21 17:43:00,70.0,39.0,28.46,SSE,160,5.0,5.0,32,0.00,,,0.00,,2013-04-21 22:43:00,
2013-04-21 17:52:00,71.0,40.0,28.46,SSE,149,7.0,7.0,32,0.00,,,0.00,,2013-04-21 22:52:00,
2013-04-21 18:02:00,70.0,39.0,28.46,SSE,155,8.0,8.0,32,0.00,,,0.00,,2013-04-21 23:02:00,
2013-04-21 18:12:00,70.0,39.0,28.46,SSE,155,8.0,8.0,32,0.00,,,0.00,,2013-04-21 23:12:00,
2013-04-21 18:22:00,70.0,39.0,28.46,SE,139,8.0,10.0,32,0.00,,,0.00,,2013-04-21 23:22:00,
2013-04-21 18:32:00,70.0,38.0,28.46,SE,127,7.0,7.0,31,0.00,,,0.00,,2013-04-21 23:32:00,
2013-04-21 18:42:00,70.0,38.0,28.46,SE,127,7.0,7.0,31,0.00,,,0.00,,2013-04-21 23:42:00,
2013-04-21 18:52:00,69.0,38.0,28.46,SE,145,6.0,6.0,32,0.00,,,0.00,,2013-04-21 23:52:00,
2013-04-21 19:01:00,69.0,38.0,28.46,SE,145,6.0,6.0,32,0.00,,,0.00,,2013-04-22 00:01:00,
2013-04-21 19:11:00,69.0,38.0,28.46,SE,145,6.0,6.0,32,0.00,,,0.00,,2013-04-22 00:11:00,
2013-04-21 19:21:00,69.0,38.0,28.46,ESE,121,4.0,7.0,32,0.00,,,0.00,,2013-04-22 00:21:00,
2013-04-21 19:32:00,69.0,38.0,28.46,ESE,121,4.0,7.0,32,0.00,,,0.00,,2013-04-22 00:32:00,
2013-04-21 19:42:00,69.0,38.0,28.46,ESE,121,4.0,7.0,32,0.00,,,0.00,,2013-04-22 00:42:00,
2013-04-21 19:51:00,65.0,36.0,28.46,SE,145,3.0,7.0,34,0.00,,,0.00,,2013-04-22 00:51:00,
2013-04-21 20:01:00,64.0,36.0,28.46,SSE,148,5.0,5.0,35,0.00,,,0.00,,2013-04-22 01:01:00,
2013-04-21 20:12:00,64.0,36.0,28.46,SSE,148,5.0,5.0,35,0.00,,,0.00,,2013-04-22 01:12:00,
2013-04-21 20:21:00,64.0,37.0,28.46,SSE,154,5.0,5.0,37,0.00,,,0.00,,2013-04-22 01:21:00,
2013-04-21 20:32:00,62.0,37.0,28.46,SE,146,5.0,5.0,39,0.00,,,0.00,,2013-04-22 01:32:00,
2013-04-21 20:41:00,62.0,37.0,28.46,SE,146,5.0,5.0,39,0.00,,,0.00,,2013-04-22 01:41:00,
2013-04-21 20:52:00,61.0,38.0,28.49,ESE,120,3.0,3.0,42,0.00,,,0.00,,2013-04-22 01:52:00,
2013-04-21 21:02:00,59.0,38.0,28.49,SSE,147,4.0,5.0,45,0.00,,,0.00,,2013-04-22 02:02:00,
2013-04-21 21:11:00,58.0,37.0,28.49,SSE,154,4.0,5.0,46,0.00,,,0.00,,2013-04-22 02:11:00,
2013-04-21 21:21:00,58.0,37.0,28.49,SSE,154,4.0,5.0,46,0.00,,,0.00,,2013-04-22 02:21:00,
2013-04-21 21:32:00,58.0,37.0,28.49,SSE,154,4.0,5.0,46,0.00,,,0.00,,2013-04-22 02:32:00,
2013-04-21 21:42:00,58.0,37.0,28.49,SSE,154,4.0,5.0,46,0.00,,,0.00,,2013-04-22 02:42:00,
2013-04-21 21:52:00,56.0,37.0,28.49,SSE,147,5.0,5.0,48,0.00,,,0.00,,2013-04-22 02:52:00,
2013-04-21 22:02:00,56.0,37.0,28.49,SSE,147,5.0,5.0,48,0.00,,,0.00,,2013-04-22 03:02:00,
2013-04-21 22:11:00,56.0,37.0,28.49,SSE,147,5.0,5.0,48,0.00,,,0.00,,2013-04-22 03:11:00,
2013-04-21 22:22:00,55.0,37.0,28.49,SSE,150,4.0,4.0,51,0.00,,,0.00,,2013-04-22 03:22:00,
2013-04-21 22:33:00,55.0,37.0,28.49,SE,144,3.0,3.0,51,0.00,,,0.00,,2013-04-22 03:33:00,
2013-04-21 22:43:00,55.0,37.0,28.49,SE,144,3.0,3.0,51,0.00,,,0.00,,2013-04-22 03:43:00,
2013-04-21 22:52:00,55.0,38.0,28.49,SE,145,3.0,4.0,52,0.00,,,0.00,,2013-04-22 03:52:00,
2013-04-21 23:02:00,55.0,38.0,28.49,SE,145,3.0,4.0,52,0.00,,,0.00,,2013-04-22 04:02:00,
2013-04-21 23:12:00,55.0,38.0,28.49,SE,145,3.0,4.0,52,0.00,,,0.00,,2013-04-22 04:12:00,
2013-04-21 23:23:00,54.0,38.0,28.49,South,169,3.0,4.0,55,0.00,,,0.00,,2013-04-22 04:23:00,
2013-04-21 23:33:00,54.0,38.0,28.49,South,169,3.0,4.0,55,0.00,,,0.00,,2013-04-22 04:33:00,
2013-04-21 23:43:00,54.0,38.0,28.49,South,169,3.0,4.0,55,0.00,,,0.00,,2013-04-22 04:43:00,
2013-04-21 23:52:00,54.0,40.0,28.49,SSE,159,5.0,5.0,58,0.00,,,0.00,,2013-04-22 04:52:00,